Regional Weather Roundup
Issued by NWS New Orleans/Baton Rouge, LA

Home | Current Version | Previous Version | Graphics & Text | Print | Product List | Glossary On
Versions: 1 2 3 4 5 6 7 8 9 10 11 12 13 14 15 16 17 18 19 20 21 22 23 24 25 26 27 28 29 30 31 32 33 34 35 36 37 38 39 40 41 42 43 44 45 46 47 48 49 50
072
ASUS44 KLIX 210205
RWRLIX
NEW ORLEANS REGIONAL WEATHER ROUNDUP
NATIONAL WEATHER SERVICE NEW ORLEANS LA
900 PM CDT SUN APR 20 2014

NOTE: "FAIR" INDICATES FEW OR NO CLOUDS BELOW 12,000 FEET WITH NO
      SIGNIFICANT WEATHER AND/OR OBSTRUCTIONS TO VISIBILITY.
      SKY/WX - SKY CONDITION AND SIGNIFICANT WEATHER.
      TMP - AIR TEMPERATURE.     DP    - DEWPOINT TEMPERATURE.
      RH  - RELATIVE HUMIDITY.   PRES  - PRESSURE.
      HI  - HEAT INDEX.          WCI   - WIND CHILL INDEX.

*  THESE STATIONS ARE NOT NWS OR FAA STATIONS AND ARE NOT UNDER
   NWS QUALITY CONTROL.

LAZ038-040-048-061>063-065>067-069-210300-
SOUTHEAST LOUISIANA

CITY           SKY/WX    TMP DP  RH WIND       PRES   REMARKS
N.O. AUDUBON   NOT AVBL
N.O. INTL ARPT PTCLDY    70  63  78 S9        30.11R
N.O. LAKEFRONT CLEAR     70  63  78 SE14      30.12R
N.O. DOWNTOWN*   N/A     73  59  60 SE5       30.12R
SLIDELL        CLEAR     66  60  81 SE7       30.12R
BATON ROUGE    CLEAR     70  56  61 CALM      30.09R
BOOTHVILLE     CLEAR     62  58  86 E6        30.15R
BELLE CHASSE   CLEAR    N/A N/A N/A SE7       30.12R
BOGALUSA*        N/A     66  55  66 SE5       30.12R
GALLIANO*      CLEAR     65  61  85 CALM      30.12R
NEW ROADS*       N/A     69  57  65 CALM      30.09R
GONZALES*        N/A     67  54  63 S5        30.09R
HAMMOND*       CLEAR     66  55  68 CALM      30.11S
HOUMA*           N/A     67  61  80 S3        30.11S
PORT FOURCHON* CLEAR     68  63  83 SE7       30.13S

$$

MSZ070-080>082-210300-
SOUTHERN MISSISSIPPI

CITY           SKY/WX    TMP DP  RH WIND       PRES   REMARKS
MCCOMB         CLEAR     66  54  65 CALM      30.10R
GULFPORT       CLEAR     66  58  75 SE9       30.14R
BILOXI         CLEAR     64  58  81 S9        30.14R
PASCAGOULA     CLEAR     60  59  96 S3        30.15R
STENNIS ARPT*  CLEAR     63  55  77 SE5       30.13R

$$

COASTAL OBSERVATIONS
LAKE AND NEARSHORE STATIONS

STATION/POSITION TIME  TEMP    WIND        PRES    WAVE
                       AIR SEA DIR/SP/G            HT/PER
                 (UTC) (F)     (DEG/KT/KT) (MB)    (FT/S)
PASCAGOULA       0200   66     160/  8/ 10 1020.3
WAVELAND YACHT   0200   66 72  150/  9/ 13 1019.6
GRAND ISLE       0200   68 68  130/  6/  8 1020.6
SOUTHWEST PASS   0200   65 60  100/ 10/ 12 1020.9
NEW CANAL        0200   72 69  150/  3/  6 1020.1
SHELL BEACH      0200   65 67  150/  7/ 12 1020.2

OFFSHORE STATIONS

STATION/POSITION TIME  TEMP    WIND        PRES    WAVE
                       AIR SEA DIR/SP/G            HT/PER
                 (UTC) (F)     (DEG/KT/KT) (MB)    (FT/S)
64 S DAUPHIN ISL 0141   63 70   70/ 16/ 17 1020.9

$$




USA.gov is the U.S. government's official web portal to all federal, state and local government web resources and services.